This is the latest recevied weather packets stored in our database for station/object KE8DDT-7. If no packets are shown the sender has not sent any weather packets the latest 10 day(s).
| Time | Temp. | Humidity | Pressure | Rain* | Wind** | Luminosity | Snow |
|---|---|---|---|---|---|---|---|
| 1788391631 | 30.56° C | 63% | 1004.9 hPa | 0 mm | - | 18 W/m² | - |
| 1788391331 | 30.56° C | 63% | 1004.7 hPa | 0 mm | - | 19 W/m² | - |
| 1788391031 | 31.11° C | 62% | 1004.7 hPa | 0 mm | - | 21 W/m² | - |
| 1788390731 | 31.11° C | 63% | 1004.7 hPa | 0 mm | - | 30 W/m² | - |
| 1788390431 | 31.11° C | 62% | 1004.7 hPa | 0 mm | - | 35 W/m² | - |
| 1788390131 | 31.11° C | 62% | 1004.7 hPa | 0 mm | - | 46 W/m² | - |
| 1788389831 | 31.11° C | 62% | 1004.7 hPa | 0 mm | - | 74 W/m² | - |
| 1788389531 | 31.11° C | 62% | 1004.7 hPa | 0 mm | - | 40 W/m² | - |
| 1788388931 | 31.67° C | 62% | 1004.7 hPa | 0 mm | - | 46 W/m² | - |
| 1788388631 | 31.67° C | 62% | 1004.8 hPa | 0 mm | - | 54 W/m² | - |
| 1788388331 | 31.67° C | 61% | 1004.7 hPa | 0 mm | - | 69 W/m² | - |
| 1788388031 | 31.67° C | 62% | 1004.6 hPa | 0 mm | - | 100 W/m² | - |
| 1788387731 | 31.67° C | 62% | 1004.6 hPa | 0 mm | - | 97 W/m² | - |
| 1788387431 | 31.67° C | 61% | 1004.6 hPa | 0 mm | - | 97 W/m² | - |
| 1788387131 | 31.67° C | 61% | 1004.7 hPa | 0 mm | - | 76 W/m² | - |
| 1788386831 | 31.67° C | 61% | 1004.7 hPa | 0 mm | - | 97 W/m² | - |
| 1788386231 | 32.22° C | 60% | 1004.7 hPa | 0 mm | - | 51 W/m² | - |
| 1788385931 | 32.22° C | 61% | 1004.5 hPa | 0 mm | - | 102 W/m² | - |
| 1788385631 | 32.22° C | 61% | 1004.5 hPa | 0 mm | - | 239 W/m² | - |
| 1788385331 | 32.22° C | 60% | 1004.6 hPa | 0 mm | - | 227 W/m² | - |
| 1788385031 | 32.22° C | 61% | 1004.6 hPa | 0 mm | - | 192 W/m² | - |
| 1788384731 | 32.22° C | 60% | 1004.8 hPa | 0 mm | - | 121 W/m² | - |
| 1788384404 | 32.22° C | 61% | 1004.9 hPa | 0 mm | - | 79 W/m² | - |
| 1788384104 | 32.22° C | 61% | 1004.9 hPa | 0 mm | - | 86 W/m² | - |
| 1788383804 | 32.22° C | 61% | 1005 hPa | 0 mm | - | 88 W/m² | - |
* Rain latest hour (hover to see other rain measurements)
** Current wind speed in m/s (hover to see current wind gust speed)